Temperature
16 16 16 16 15 15 15 15 15 15 15 14 14 14 14 14 13 13 13 13 13 13 13 13 12 12 12 12 12 12 12 12 11 11 11 11 11 11 11 10 10 10 10
16 16 16 15 15 15 15 15 15 15 14 14 14 14 14 13 13 13 13 13 13 13 13 12 12 12 12 12 12 12 11 11 11 11 11 11 11 10 10 10 10 10 10
15 15 15 15 15 15 15 15 14 14 14 14 14 14 13 13 13 13 13 13 13 12 12 12 12 12 12 12 12 11 11 11 11 11 10 10 10 10 10 10 10 10 10
15 15 15 15 15 15 14 14 14 14 14 14 14 13 13 13 13 13 13 13 12 12 12 12 12 12 12 12 11 11 11 11 10 10 10 10 10 10 10 10 9 9 9
15 14 14 14 14 14 14 14 14 14 13 13 13 13 13 13 13 13 13 12 12 12 12 12 12 12 12 11 11 11 11 10 10 10 10 10 10 10 10 9 9 9 9
15 15 14 14 14 14 14 14 13 13 13 13 13 13 13 13 13 12 12 12 12 12 12 12 12 12 11 11 11 11 11 10 10 10 10 9 9 9 9 9 9 9 8
14 14 14 14 14 14 13 13 13 13 13 13 13 13 13 13 13 12 12 12 12 12 11 11 11 11 11 11 11 11 10 10 10 10 10 10 9 9 9 9 9 9 8
14 14 14 14 14 13 13 13 13 13 13 13 13 13 13 13 12 12 12 12 12 11 11 11 11 11 11 11 11 10 10 10 10 9 9 9 9 9 9 9 9 8 8
14 14 14 13 13 13 13 13 13 12 12 12 12 12 12 12 12 12 12 11 11 11 11 11 11 11 11 10 10 10 10 10 10 9 9 9 9 9 9 8 8 8 8
14 13 13 13 13 13 13 13 12 12 12 12 12 12 12 11 11 11 11 11 11 11 11 10 10 10 10 10 10 10 10 10 9 9 9 9 9 9 9 8 8 8 8
13 13 13 13 12 12 12 12 12 12 12 12 11 11 11 11 11 11 11 11 11 11 10 10 10 10 10 10 10 10 10 9 9 9 9 9 8 8 8 8 8 8 8
13 13 12 12 12 12 12 12 11 11 11 11 11 11 11 11 11 11 11 11 10 10 10 10 10 10 10 10 9 9 9 9 9 8 8 8 8 8 8 8 8 8 8
12 12 12 12 11 11 11 11 11 11 11 11 10 10 10 10 11 10 10 10 10 10 10 10 10 9 9 9 9 9 9 9 8 8 8 8 8 8 8 8 8 8 7
12 12 11 11 11 11 10 10 10 10 10 10 10 10 10 10 10 10 10 10 10 10 9 9 9 9 9 9 9 9 8 8 8 8 8 8 8 8 7 7 7 7 7
11 11 11 11 11 10 10 10 10 10 10 10 10 10 10 10 10 10 10 10 10 10 9 9 9 9 9 9 8 8 8 8 8 8 7 7 7 7 7 7 7 7 7
11 11 10 10 10 10 10 10 10 10 10 9 9 9 9 9 9 9 9 9 9 9 9 9 9 8 8 8 8 8 8 8 8 7 7 7 7 7 7 7 6 6 6
10 10 10 10 10 10 9 9 9 9 9 9 9 9 9 9 9 9 9 9 8 8 8 8 8 8 8 8 7 7 7 7 7 7 7 7 6 6 6 6 6 6 6
10 9 9 9 9 9 9 9 9 9 9 9 9 9 8 8 8 8 8 8 8 7 7 7 7 7 7 7 7 7 7 7 7 6 6 6 6 6 6 6 5 5 5
9 9 9 9 9 9 9 9 9 8 8 8 8 8 8 8 8 7 7 7 7 7 7 7 7 7 7 7 7 6 6 6 6 6 6 6 6 5 5 5 5 5 5
9 9 9 8 8 8 8 8 8 8 8 8 8 8 8 8 7 7 7 7 7 7 7 7 7 7 7 6 6 6 6 6 6 6 6 5 5 5 5 5 5 4 4
8 8 8 8 8 8 7 7 8 7 7 7 7 7 7 7 7 7 7 7 7 6 6 6 6 6 6 6 6 6 6 5 5 5 5 5 5 5 4 4 4 4 4
8 7 7 7 7 7 7 7 7 7 7 7 7 7 7 6 6 6 6 6 6 6 6 6 6 6 6 6 5 5 5 5 5 5 5 5 4 4 4 4 4 4 4
7 7 7 7 7 6 6 6 6 6 6 6 6 6 6 6 6 6 6 6 6 6 6 5 5 5 5 5 5 5 5 5 5 5 5 4 4 4 4 4 4 3 3
7 7 6 6 6 6 6 6 6 6 6 6 6 6 6 5 5 5 5 5 5 5 5 5 5 5 5 5 5 4 4 4 4 4 4 4 4 4 4 3 3 3 3
6 6 6 6 6 6 5 5 5 5 5 5 5 5 5 5 5 5 5 5 5 5 5 4 4 4 4 4 4 4 4 4 4 4 4 4 4 3 3 3 3 3 3
6 5 5 5 5 5 5 5 5 5 5 5 5 5 5 5 4 4 4 4 4 4 4 4 4 4 4 4 4 4 4 3 3 3 3 3 3 3 3 3 3 3 2
Wind_Speed
4 3 3 3 3 3 3 2 2 3 3 4 4 4 4 3 3 3 2 2 1 1 1 1 0 1 1 0 1 1 1 1 1 1 1 1 2 1 2 3 4 6 6
3 3 4 3 3 3 3 3 3 3 3 4 3 3 3 3 3 3 3 3 3 2 2 2 2 1 1 1 1 1 1 1 2 1 1 1 1 1 2 1 2 4 4
2 2 3 3 3 3 2 2 2 2 2 2 3 3 2 2 2 2 3 3 3 3 2 3 2 2 2 1 1 1 1 0 1 2 2 1 1 1 1 1 2 2 3
3 3 2 2 2 2 2 2 2 2 2 2 2 3 2 2 2 2 2 2 2 2 2 2 2 2 2 2 1 1 1 1 1 1 1 1 1 2 1 1 2 2 2
3 3 3 2 1 2 1 1 1 1 2 2 2 2 2 2 2 1 1 1 1 1 1 2 2 3 2 2 1 1 0 1 1 2 2 1 1 1 2 2 2 2 3
4 3 2 2 2 2 2 2 2 2 2 2 2 3 2 1 2 2 0 1 1 1 2 2 3 3 4 4 3 2 2 2 2 2 2 3 3 2 2 2 1 1 2
4 4 3 3 2 3 3 2 2 2 2 2 2 2 3 3 4 3 2 2 3 3 3 3 3 3 4 3 3 3 3 4 5 4 4 4 3 3 2 2 2 2 3
3 3 3 3 3 3 3 3 3 3 3 3 3 3 3 3 5 5 4 3 4 4 4 4 3 3 4 4 4 4 3 4 5 4 4 4 3 3 3 3 3 2 3
3 3 3 3 3 3 3 3 3 3 3 3 3 3 3 4 6 5 4 3 4 4 4 3 3 3 5 4 3 3 3 4 5 6 5 4 5 4 4 2 1 1 2
3 3 3 3 3 3 4 3 3 3 3 3 3 3 4 4 6 7 6 3 4 4 3 3 3 3 3 4 4 4 4 4 3 3 3 4 4 4 5 4 4 3 2
3 3 3 3 3 3 3 3 2 3 3 3 4 4 4 4 6 8 8 4 4 4 3 3 3 5 5 6 5 4 5 4 3 3 3 3 2 2 3 4 4 4 4
2 3 3 3 4 3 3 3 3 3 3 3 3 3 3 3 4 6 8 8 5 4 4 3 3 5 6 7 6 5 5 3 2 3 2 3 3 3 2 3 4 4 5
3 3 3 3 3 3 3 3 3 3 3 3 3 3 3 2 3 6 8 8 7 4 3 4 4 6 6 6 7 7 4 3 3 3 4 4 3 3 2 1 2 2 3
2 3 3 3 3 2 2 3 3 3 3 4 4 4 3 2 2 2 3 4 5 5 4 4 5 6 5 5 5 5 4 4 4 4 4 3 2 2 2 2 2 2 2
3 3 3 3 3 2 2 3 4 4 4 4 3 3 3 4 4 4 3 4 4 5 3 2 2 2 2 3 3 3 4 4 4 4 3 3 3 3 3 3 3 3 3
3 3 2 2 2 3 3 2 3 4 5 5 5 4 4 5 5 4 5 6 6 6 3 3 4 4 5 5 5 4 4 5 5 4 4 4 4 4 4 3 3 4 4
4 3 2 2 2 3 3 3 3 3 4 5 6 6 6 6 6 5 5 4 4 4 3 4 5 5 5 5 5 5 5 5 5 5 5 5 4 4 4 3 4 4 4
4 4 3 3 3 3 3 4 3 3 3 3 5 6 7 7 7 6 5 2 2 3 4 4 5 4 4 5 5 5 5 4 4 4 5 5 4 4 4 4 5 5 5
4 3 3 3 3 3 3 4 3 4 3 3 2 3 6 6 6 6 4 3 4 5 5 5 5 4 4 4 4 4 4 4 5 5 5 5 5 5 5 5 5 7 6
4 6 5 4 3 3 4 4 4 4 4 4 4 3 2 2 2 3 4 4 5 5 5 5 5 5 5 5 5 4 4 5 5 5 5 5 5 5 5 6 6 6 6
3 4 5 4 4 4 4 4 4 4 4 4 4 4 4 3 4 4 4 5 5 5 5 5 5 5 5 4 4 5 5 5 5 5 5 5 5 5 5 5 6 6 6
3 3 3 4 4 4 4 4 4 4 4 4 3 3 5 3 3 4 4 4 4 4 4 4 4 4 4 4 4 4 5 5 5 4 4 5 5 5 5 6 6 6 6
3 3 4 4 4 4 4 4 3 3 3 3 3 3 3 4 4 4 4 4 4 4 3 3 4 4 3 4 4 4 5 6 5 5 5 5 5 6 6 6 7 7 7
3 3 4 3 3 3 4 4 4 4 3 3 3 3 3 4 4 4 4 4 4 3 3 3 4 5 5 4 4 5 5 5 5 5 6 6 7 6 6 6 7 7 7
3 3 3 4 4 3 3 4 4 4 4 4 4 3 3 3 4 4 3 3 4 4 4 4 4 4 5 6 5 5 6 8 7 6 6 6 7 7 7 7 7 7 7
3 3 3 3 3 3 3 4 4 4 4 4 3 3 3 3 3 3 3 3 3 3 4 3 4 5 6 6 7 7 8 9 9 9 7 6 7 7 7 6 7 7 7
Wind_Direction
169 169 161 158 164 165 169 179 179 172 164 170 171 173 172 174 164 149 153 165 160 179 182 136 130 132 141 132 72 41 30 89 165 259 220 165 139 131 145 187 195 191 202
168 160 162 158 179 179 177 191 190 181 175 171 172 171 164 159 162 165 177 179 182 186 186 165 180 157 157 179 160 190 173 161 152 194 256 209 171 167 171 207 222 231 213
141 152 165 172 183 188 191 181 182 170 165 155 154 154 150 148 164 193 184 185 187 191 192 186 189 164 171 174 192 198 181 166 133 172 230 231 216 206 195 266 260 242 251
154 155 164 185 189 187 186 179 184 174 166 168 159 161 161 161 178 209 182 182 194 200 187 177 170 165 174 184 191 199 178 166 170 177 210 236 242 237 175 239 283 280 265
167 174 185 188 197 175 172 179 187 190 196 201 189 173 174 185 179 159 221 202 197 214 208 186 165 152 137 154 178 199 175 200 201 204 216 237 246 235 234 228 244 268 271
173 180 178 183 185 178 188 200 201 199 206 208 204 185 184 211 167 146 348 275 241 223 230 223 193 169 174 184 198 203 189 199 219 221 228 228 237 232 226 231 224 270 287
179 181 180 182 183 190 195 199 206 206 217 229 221 198 194 192 184 187 219 256 257 240 229 227 227 207 183 185 204 211 227 232 223 217 226 236 234 222 202 225 241 234 248
184 186 181 182 196 201 195 199 212 216 214 225 227 216 199 206 204 204 224 241 258 253 236 229 215 198 205 201 203 210 223 234 231 219 220 235 230 200 193 209 226 256 272
183 198 193 192 201 207 212 212 219 219 219 219 227 222 212 213 211 210 216 241 249 258 251 236 213 212 216 209 204 213 230 246 238 221 220 242 249 231 207 171 215 234 277
194 202 204 202 205 217 224 226 222 214 218 220 228 234 227 213 212 211 211 230 244 251 246 239 213 207 222 214 208 212 225 238 233 243 239 246 247 243 235 202 198 208 236
190 196 206 210 212 219 224 228 220 220 223 225 227 236 232 218 208 211 210 224 237 244 234 233 220 209 219 223 228 217 229 236 231 222 224 228 229 231 225 218 208 203 214
186 194 204 211 219 217 211 220 217 220 222 225 230 239 237 221 203 216 215 225 240 246 241 225 227 224 225 227 230 236 241 245 229 224 221 229 229 232 236 219 221 217 220
196 203 217 218 216 211 208 215 221 219 219 220 223 234 240 235 229 224 222 232 246 247 253 247 243 229 227 228 231 233 228 213 214 227 231 233 230 227 221 228 220 227 248
208 213 224 221 216 217 217 219 223 227 225 224 227 229 233 235 234 227 226 233 244 254 265 261 251 241 227 224 222 226 221 217 220 229 235 236 227 224 230 231 233 226 241
234 226 226 226 215 214 220 222 217 222 215 219 230 231 230 240 242 232 219 223 226 233 244 244 229 215 213 215 214 214 216 220 226 228 225 231 235 232 238 233 224 222 232
253 247 238 225 216 209 215 247 248 228 225 225 229 231 242 248 255 246 242 240 234 227 220 219 222 221 219 217 217 220 219 221 222 218 217 219 227 231 238 244 233 223 233
242 239 233 233 232 223 221 220 233 263 257 246 242 244 247 253 257 252 253 251 231 210 218 225 225 225 225 223 220 220 225 223 215 214 217 220 223 229 228 235 242 238 237
243 242 238 228 230 231 235 232 222 223 241 256 251 243 243 247 248 248 250 237 229 213 224 232 235 233 230 229 228 230 230 223 219 219 219 218 218 227 233 235 241 243 239
251 241 233 230 229 233 236 232 224 228 237 245 243 242 240 245 246 243 220 220 226 230 232 231 235 238 242 240 236 235 234 226 222 221 222 222 220 223 235 237 242 250 245
248 246 242 233 228 232 237 234 227 225 232 237 236 233 218 208 222 226 221 229 232 235 234 232 235 237 238 241 238 234 236 235 228 224 226 225 225 225 232 236 240 247 244
249 238 239 241 234 233 236 236 234 234 236 238 240 227 207 214 224 230 227 231 233 233 232 231 232 235 237 239 238 235 238 241 234 229 228 227 227 232 233 234 238 244 247
263 251 244 241 240 240 243 241 239 239 241 246 248 239 217 221 229 234 234 237 242 239 235 230 230 230 229 231 233 236 240 243 242 239 236 234 232 234 236 236 237 241 246
268 263 259 253 245 246 248 247 243 240 243 245 242 232 220 230 238 242 243 240 239 242 247 249 244 244 250 245 243 237 234 239 239 236 241 242 238 236 236 239 240 240 243
274 266 260 260 252 241 239 243 244 245 245 245 245 240 231 235 244 248 248 248 250 251 247 247 251 250 254 261 253 249 245 245 246 243 238 239 243 241 237 238 241 242 243
281 273 263 260 256 248 248 248 247 249 251 252 250 247 247 244 248 251 252 249 249 251 256 257 264 262 261 264 265 260 255 252 252 253 242 238 238 238 235 234 235 239 242
282 278 268 261 255 252 250 251 252 254 256 257 255 249 249 250 252 254 255 256 254 252 258 270 270 272 272 270 266 263 262 258 253 251 250 242 235 236 235 234 235 234 237
Height
1531 1532 1533 1534 1535 1535 1536 1537 1538 1539 1540 1540 1541 1542 1542 1543 1543 1544 1544 1545 1545 1545 1546 1546 1546 1547 1547 1547 1547 1547 1547 1548 1547 1547 1547 1547 1547 1546 1545 1544 1544 1543 1541
1529 1529 1530 1531 1532 1533 1534 1535 1536 1537 1538 1538 1539 1540 1541 1541 1542 1542 1543 1543 1543 1543 1544 1544 1544 1544 1545 1545 1545 1545 1545 1545 1546 1545 1545 1545 1544 1544 1543 1543 1542 1541 1540
1526 1527 1528 1529 1530 1531 1532 1533 1534 1535 1536 1536 1537 1537 1538 1539 1539 1540 1541 1541 1541 1541 1542 1542 1542 1542 1542 1542 1543 1543 1543 1543 1543 1543 1543 1543 1542 1542 1541 1541 1540 1539 1538
1524 1525 1526 1527 1527 1528 1529 1530 1531 1532 1533 1533 1534 1535 1536 1536 1537 1538 1538 1539 1539 1539 1539 1539 1539 1540 1540 1540 1540 1540 1540 1541 1541 1541 1540 1540 1540 1540 1539 1538 1537 1537 1536
1522 1523 1523 1524 1525 1526 1527 1527 1528 1529 1530 1531 1532 1532 1533 1534 1534 1535 1536 1536 1536 1537 1537 1537 1537 1537 1537 1537 1538 1538 1537 1538 1538 1538 1538 1537 1537 1537 1536 1536 1535 1535 1534
1519 1520 1521 1522 1523 1523 1524 1525 1526 1527 1527 1528 1529 1529 1530 1531 1532 1532 1533 1533 1533 1534 1534 1534 1534 1534 1534 1534 1535 1535 1535 1535 1535 1535 1534 1534 1534 1534 1534 1533 1532 1532 1531
1517 1518 1518 1519 1520 1521 1521 1522 1523 1523 1524 1525 1526 1526 1527 1527 1528 1529 1529 1530 1530 1530 1530 1530 1531 1531 1531 1531 1531 1531 1531 1532 1532 1532 1531 1531 1531 1531 1530 1530 1529 1529 1528
1514 1515 1515 1516 1517 1518 1518 1519 1519 1520 1521 1522 1522 1523 1523 1524 1525 1525 1526 1526 1526 1526 1527 1527 1527 1527 1527 1528 1528 1527 1527 1528 1528 1528 1528 1528 1528 1527 1527 1527 1526 1525 1525
1512 1512 1513 1513 1514 1514 1514 1515 1516 1517 1517 1518 1518 1519 1519 1519 1520 1521 1522 1522 1522 1522 1523 1523 1523 1523 1524 1524 1524 1523 1523 1524 1524 1524 1524 1524 1524 1524 1524 1523 1522 1522 1521
1508 1509 1510 1510 1510 1511 1511 1511 1512 1513 1513 1514 1514 1515 1515 1516 1516 1517 1518 1518 1518 1518 1518 1519 1519 1519 1519 1519 1519 1519 1519 1519 1520 1520 1520 1520 1520 1520 1520 1519 1519 1518 1517
1505 1505 1506 1506 1507 1507 1508 1508 1508 1509 1509 1509 1510 1510 1511 1511 1512 1513 1513 1513 1513 1513 1513 1514 1514 1514 1514 1515 1515 1515 1515 1515 1515 1515 1515 1515 1515 1516 1515 1516 1515 1515 1514
1502 1502 1502 1503 1503 1503 1503 1504 1504 1504 1505 1505 1505 1506 1506 1507 1507 1508 1508 1508 1509 1509 1509 1509 1509 1509 1510 1510 1510 1510 1511 1511 1511 1511 1510 1511 1511 1511 1511 1511 1511 1511 1511
1498 1498 1498 1499 1499 1499 1499 1499 1500 1500 1500 1500 1501 1501 1501 1502 1502 1503 1503 1503 1504 1504 1504 1504 1505 1505 1505 1505 1505 1506 1506 1506 1506 1506 1506 1506 1506 1507 1507 1507 1506 1506 1506
1494 1494 1495 1495 1495 1495 1495 1495 1495 1495 1495 1496 1496 1496 1497 1497 1497 1498 1498 1498 1498 1499 1499 1499 1500 1500 1500 1500 1500 1500 1501 1501 1501 1501 1501 1501 1502 1502 1501 1501 1501 1501 1500
1490 1490 1490 1490 1490 1491 1491 1490 1490 1491 1491 1491 1491 1492 1492 1492 1492 1493 1493 1493 1493 1493 1493 1493 1493 1493 1494 1494 1494 1495 1495 1496 1496 1496 1496 1496 1496 1496 1496 1496 1496 1496 1495
1487 1486 1486 1486 1486 1486 1486 1486 1486 1487 1487 1487 1487 1488 1487 1487 1487 1487 1487 1487 1487 1488 1488 1487 1487 1487 1488 1488 1489 1489 1489 1490 1490 1491 1491 1491 1491 1491 1490 1491 1491 1490 1490
1482 1482 1482 1482 1482 1482 1482 1481 1481 1481 1482 1482 1482 1482 1482 1482 1482 1482 1482 1482 1482 1482 1482 1481 1481 1482 1482 1483 1483 1483 1483 1484 1485 1485 1485 1485 1485 1485 1485 1485 1485 1484 1484
1478 1478 1478 1477 1477 1477 1477 1477 1477 1477 1477 1476 1477 1477 1477 1477 1477 1476 1477 1477 1476 1476 1476 1476 1476 1476 1477 1477 1477 1477 1478 1478 1479 1479 1479 1480 1480 1480 1479 1479 1479 1479 1478
1473 1473 1473 1473 1473 1472 1472 1472 1472 1472 1472 1472 1471 1471 1471 1471 1471 1471 1471 1470 1470 1469 1469 1470 1470 1471 1471 1471 1471 1472 1472 1472 1473 1473 1473 1473 1474 1474 1473 1473 1473 1473 1472
1468 1468 1468 1468 1468 1467 1467 1467 1467 1467 1467 1467 1466 1466 1466 1466 1465 1465 1465 1465 1464 1464 1464 1464 1464 1465 1465 1465 1465 1466 1466 1466 1466 1466 1466 1467 1467 1467 1467 1467 1467 1466 1466
1463 1463 1463 1463 1463 1462 1462 1462 1462 1462 1462 1461 1461 1461 1461 1460 1460 1460 1459 1459 1459 1459 1459 1458 1459 1459 1459 1459 1459 1459 1460 1460 1460 1460 1460 1460 1460 1460 1460 1460 1460 1460 1460
1458 1458 1458 1458 1457 1457 1457 1457 1457 1457 1457 1457 1456 1456 1456 1455 1455 1454 1454 1454 1454 1454 1454 1453 1453 1453 1453 1453 1453 1453 1453 1453 1453 1453 1453 1453 1454 1454 1454 1454 1453 1453 1453
1454 1453 1453 1453 1453 1453 1453 1453 1453 1452 1452 1452 1451 1451 1450 1450 1449 1449 1449 1448 1448 1448 1448 1447 1447 1447 1447 1447 1447 1447 1447 1446 1447 1447 1447 1446 1446 1447 1447 1446 1446 1446 1446
1449 1448 1448 1448 1448 1448 1448 1448 1448 1447 1447 1447 1446 1446 1445 1445 1444 1444 1443 1443 1443 1442 1442 1442 1441 1441 1441 1441 1441 1440 1440 1440 1440 1440 1440 1439 1439 1439 1439 1439 1439 1439 1440
1445 1444 1443 1443 1443 1443 1443 1443 1442 1442 1442 1442 1441 1441 1440 1440 1439 1439 1438 1438 1437 1436 1436 1436 1435 1435 1435 1434 1434 1433 1433 1434 1433 1433 1433 1433 1432 1432 1432 1432 1432 1432 1432
1441 1440 1439 1439 1439 1438 1438 1438 1437 1437 1437 1437 1436 1435 1435 1434 1434 1433 1433 1432 1431 1431 1430 1429 1429 1429 1428 1428 1427 1427 1426 1426 1426 1426 1426 1425 1424 1424 1424 1425 1425 1425 1425